Location: Newark
(35.2672°N, 80.7344°W)
Time: 23:27:09
(UTC+00:00)

Courier 1B - All Passes

Search period start: 26 January 2020 00:00
Search period end: 05 February 2020 00:00
Orbit: 962 x 1209 km, 28.3° (Epoch: 26 January)

Date Brightness Start Highest point End Pass type
(mag) Time Alt. Az. Time Alt. Az. Time Alt. Az.
26 Jan - 05:57:00 10° SSW 06:01:34 19° SSE 06:06:19 10° ESE night (unlit)
26 Jan - 07:48:25 10° SW 07:54:56 40° SSE 08:01:50 10° E visible
26 Jan - 09:41:41 10° WSW 09:48:45 51° S 09:56:12 10° ESE visible
26 Jan - 11:35:41 10° W 11:42:40 40° SSW 11:49:50 10° SE visible
26 Jan - 13:31:01 10° WSW 13:36:17 20° SSW 13:41:36 10° SSE daylight
27 Jan - 05:04:52 10° S 05:08:01 14° SSE 05:11:14 10° ESE night (unlit)
27 Jan - 06:55:07 10° SW 07:01:14 34° SSE 07:07:42 10° E night (unlit)
27 Jan - 08:48:02 10° WSW 08:54:56 50° S 09:02:14 10° ESE visible
27 Jan - 10:41:50 10° W 10:48:49 44° S 10:56:08 10° ESE visible
27 Jan - 12:36:34 10° WSW 12:42:32 25° SSW 12:48:37 10° SSE daylight
28 Jan - 06:01:59 10° SW 06:07:36 28° SSE 06:13:30 10° ESE night (unlit)
28 Jan - 07:54:28 10° WSW 08:01:09 47° S 08:08:13 10° ESE visible
28 Jan - 09:48:04 10° WSW 09:55:00 48° S 10:02:19 10° ESE visible
28 Jan - 11:42:24 10° WSW 11:48:46 30° SSW 11:55:20 10° SE visible
28 Jan - 13:39:59 10° SW 13:42:14 11° SSW 13:44:31 10° SSW daylight
29 Jan - 05:09:05 10° SSW 05:14:00 22° SSE 05:19:08 10° ESE night (unlit)
29 Jan - 07:01:00 10° WSW 07:07:24 42° SSE 07:14:12 10° E night (unlit)
29 Jan - 08:54:22 10° WSW 09:01:11 49° S 09:08:25 10° ESE visible
29 Jan - 10:48:26 10° W 10:54:59 35° SSW 11:01:50 10° SE visible
29 Jan - 12:44:18 10° WSW 12:48:33 16° SSW 12:52:50 10° S daylight
30 Jan - 04:16:31 10° S 04:20:28 17° SSE 04:24:31 10° ESE night (unlit)
30 Jan - 06:07:38 10° SW 06:13:43 37° SSE 06:20:09 10° E night (unlit)
30 Jan - 08:00:44 10° WSW 08:07:24 50° S 08:14:29 10° ESE visible
30 Jan - 09:54:34 10° W 10:01:12 40° SSW 10:08:12 10° SE visible
30 Jan - 11:49:37 10° WSW 11:54:49 20° SSW 12:00:10 10° SSE visible
31 Jan - 03:24:46 10° S 03:26:58 12° SSE 03:29:10 10° SE night (unlit)
31 Jan - 05:14:24 10° SW 05:20:06 31° SSE 05:26:04 10° ESE night (unlit)
31 Jan - 07:07:10 10° WSW 07:13:39 48° S 07:20:33 10° ESE night (unlit)
31 Jan - 09:00:49 10° W 09:07:26 44° S 09:14:27 10° ESE visible
31 Jan - 10:55:20 10° WSW 11:01:06 25° SSW 11:07:05 10° SSE visible
01 Feb - 04:21:19 10° SSW 04:26:31 25° SSE 04:31:54 10° ESE night (unlit)
01 Feb - 06:13:40 10° WSW 06:19:57 45° S 06:26:36 10° ESE night (unlit)
01 Feb - 08:07:08 10° WSW 08:13:41 47° S 08:20:38 10° ESE visible
01 Feb - 10:01:18 10° WSW 10:07:22 30° SSW 10:13:43 10° SE visible
01 Feb - 11:58:26 10° SW 12:00:50 12° SSW 12:03:16 10° S visible
02 Feb - 03:28:29 10° SSW 03:32:59 20° SSE 03:37:35 10° ESE night (unlit)
02 Feb - 05:20:14 10° SW 05:26:17 40° SSE 05:32:38 10° E night (unlit)
02 Feb - 07:13:30 10° WSW 07:19:57 48° S 07:26:47 10° ESE night (unlit)
02 Feb - 09:07:26 10° WSW 09:13:39 34° SSW 09:20:12 10° SE visible
02 Feb - 11:03:03 10° WSW 11:07:09 16° SSW 11:11:21 10° S visible
03 Feb - 02:36:01 10° S 02:39:28 15° SSE 02:42:58 10° ESE night (unlit)
03 Feb - 04:26:54 10° SW 04:32:41 35° SSE 04:38:40 10° ESE night (unlit)
03 Feb - 06:19:55 10° WSW 06:26:14 48° S 06:32:54 10° ESE night (unlit)
03 Feb - 08:13:40 10° W 08:19:56 39° SSW 08:26:34 10° SE visible
03 Feb - 10:08:31 10° WSW 10:13:28 20° SSW 10:18:36 10° SSE visible
04 Feb - 01:44:44 10° SSE 01:45:58 11° SSE 01:47:12 10° SE visible
04 Feb - 03:33:39 10° SW 03:39:06 29° SSE 03:44:40 10° ESE night (unlit)
04 Feb - 05:26:23 10° WSW 05:32:34 46° S 05:39:02 10° ESE night (unlit)
04 Feb - 07:19:58 10° WSW 07:26:14 43° S 07:32:51 10° ESE night (unlit)
04 Feb - 09:14:22 10° WSW 09:19:47 25° SSW 09:25:29 10° SSE visible
